Wind_Speed
10 10 10 10 11 11 11 14 13 12 11 11 11 11 10 10 10 10 10 9 9 10 9 9 8 7 6 5 4 4 3 3 3 3 2 2 2 1 0 0 1 2 3 3 4 4 4 4 4
10 10 10 10 12 12 14 14 14 14 14 13 12 11 10 10 10 10 10 9 10 9 9 8 8 7 6 5 5 4 3 3 2 2 2 2 2 2 1 1 1 2 3 3 4 3 3 4 4
10 10 11 12 13 14 15 16 16 15 15 14 13 12 10 10 11 10 10 10 10 10 9 8 7 7 6 6 5 4 4 4 3 3 3 3 3 3 3 2 1 2 3 3 3 3 2 3 4
11 10 10 12 14 14 16 16 16 16 15 14 13 12 11 11 11 11 11 10 10 10 9 9 8 7 6 6 5 4 4 5 5 4 4 3 3 3 3 3 3 2 2 3 3 3 2 1 2
10 10 11 13 13 15 16 15 16 16 15 14 14 13 13 13 12 11 11 11 11 10 9 9 8 7 7 6 6 6 6 6 5 5 4 4 4 3 3 3 3 2 1 1 2 3 2 2 2
10 10 13 14 14 15 15 15 16 16 15 14 14 14 14 14 13 13 13 12 12 11 10 10 9 8 7 6 6 6 6 6 5 5 4 4 4 4 3 3 3 1 1 1 2 1 1 1 2
10 11 13 14 14 15 15 15 16 16 15 14 15 15 15 15 14 13 13 13 12 12 11 11 10 8 7 7 7 7 6 6 6 5 5 5 4 5 4 3 3 2 2 1 1 0 1 2 2
11 11 11 13 14 14 15 15 15 16 15 15 15 15 15 15 14 14 13 13 12 11 11 11 10 9 8 7 7 7 7 6 6 6 6 5 4 4 4 3 3 3 2 2 1 0 1 1 2
11 12 13 14 14 15 13 14 14 15 16 15 15 15 15 15 14 14 13 13 12 11 11 10 10 10 8 7 7 7 6 6 6 6 6 5 5 4 3 3 2 2 2 1 1 1 2 2 2
11 12 13 14 14 13 13 13 14 14 15 15 15 15 15 15 14 14 13 13 12 11 10 10 10 10 9 8 7 7 6 5 5 5 5 5 5 5 4 3 2 2 1 1 2 2 2 2 3
11 12 13 12 12 12 12 14 14 14 15 15 15 15 15 15 14 14 13 13 12 12 11 10 10 10 9 8 7 7 7 6 6 6 6 6 6 5 4 3 2 2 2 2 2 3 3 3 3
11 11 12 11 12 12 13 14 14 14 14 14 14 15 15 14 14 13 13 13 12 11 11 11 10 10 10 9 8 7 7 7 6 6 6 6 5 5 5 5 4 3 3 3 3 3 3 3 3
10 11 10 10 11 11 12 13 12 12 13 14 15 14 14 13 14 13 13 13 12 12 11 10 9 10 9 9 8 7 6 7 7 6 6 6 6 5 5 6 5 4 4 4 3 3 3 3 3
9 9 9 9 9 10 11 11 11 12 13 14 14 14 14 14 14 14 13 13 12 12 11 11 10 10 9 9 8 7 6 7 6 6 6 7 6 5 5 6 5 5 4 4 4 3 3 3 3
7 8 8 8 9 10 10 11 11 12 12 13 13 14 14 14 13 13 13 13 13 11 11 11 11 10 10 10 9 8 8 7 7 6 6 6 6 6 6 5 5 4 4 4 4 4 4 4 4
5 7 7 8 9 10 10 10 10 11 12 13 13 13 13 13 14 13 13 12 13 12 11 10 11 10 10 9 9 8 7 7 6 6 7 6 6 6 6 5 5 4 4 4 4 4 4 4 5
6 5 5 6 7 8 9 10 10 11 13 13 12 13 13 13 13 13 12 12 12 11 11 10 10 11 11 10 9 9 7 7 6 6 7 7 6 6 5 5 5 4 4 4 4 4 4 5 5
5 4 5 5 5 7 8 9 10 11 12 12 12 13 12 12 13 12 12 11 11 11 10 10 10 11 11 11 9 8 7 6 6 7 6 6 6 6 6 6 5 5 5 4 5 5 5 6 6
2 3 3 4 4 5 5 7 10 10 11 11 12 13 13 12 12 12 12 11 11 11 11 11 11 11 10 10 9 8 7 6 7 6 6 6 7 7 7 7 6 6 6 5 5 5 5 6 6
1 0 1 2 3 4 4 6 8 9 10 11 12 12 12 12 12 12 12 11 10 10 10 10 11 11 10 10 9 8 8 7 7 7 7 7 7 8 8 8 7 7 6 6 6 6 6 7 7
1 2 2 3 3 3 5 6 8 9 9 10 11 12 11 12 12 12 12 12 11 11 11 10 11 11 10 9 9 8 8 8 7 8 8 8 9 9 9 8 8 8 7 7 7 7 7 7 7
4 3 3 3 3 4 5 7 8 8 8 10 11 11 11 11 11 12 12 12 11 11 11 11 11 11 11 9 9 9 9 9 9 9 9 9 10 9 9 9 9 8 8 8 8 8 8 8 8
6 5 5 4 4 5 6 6 6 8 9 10 11 12 11 11 11 12 13 12 12 11 11 11 12 12 12 11 10 10 9 9 9 9 10 10 10 10 10 9 9 9 9 9 9 10 10 10 10
4 5 5 5 6 6 7 7 7 7 8 8 10 11 11 11 11 12 12 12 12 12 12 12 12 12 12 12 11 11 11 10 10 10 11 11 11 11 10 10 10 10 10 10 11 12 12 12 12
6 6 6 6 7 7 7 8 7 7 7 8 9 11 11 11 12 13 13 13 13 13 13 12 12 12 12 12 12 12 12 11 11 11 11 11 12 12 11 11 12 12 12 12 13 13 13 14 14
7 7 7 7 8 9 10 11 8 6 6 7 9 11 11 11 12 14 14 14 14 14 14 13 13 13 13 13 13 13 13 11 11 11 11 11 12 12 13 13 13 13 14 14 14 14 15 15 16
8 8 8 9 9 10 11 10 9 7 7 9 10 12 13 12 13 14 15 14 15 15 15 14 14 14 14 14 14 13 13 12 12 12 12 12 13 14 14 14 15 15 15 15 16 17 17 18 18
9 9 10 10 11 11 11 9 8 9 10 10 11 12 13 14 14 15 15 15 15 16 15 15 15 15 14 14 14 14 14 13 13 13 14 14 15 15 15 16 16 16 17 17 18 19 19 20 20
11 11 12 11 12 13 11 10 10 11 11 11 12 14 14 14 15 15 16 16 16 16 16 16 17 16 16 16 15 15 15 15 15 14 15 16 16 16 16 17 18 18 18 19 20 21 21 21 22
15 14 15 14 13 13 12 12 12 13 14 14 14 15 14 14 15 15 16 17 17 17 17 17 18 18 18 18 17 17 17 17 17 17 17 17 17 17 18 19 20 20 20 21 21 21 22 22 23
Wind_Direction
82 76 71 68 68 66 58 53 51 48 48 48 44 39 40 39 37 37 36 39 44 43 47 50 52 53 55 61 63 60 58 53 50 51 52 51 66 57 7 324 192 193 196 194 197 205 219 235 232
79 78 72 69 69 63 60 51 48 50 47 47 44 41 41 39 38 40 39 42 42 40 46 50 52 53 53 55 62 55 47 26 42 69 59 60 59 39 34 42 169 176 188 193 199 211 224 230 230
77 75 72 66 67 58 56 49 45 46 46 45 44 43 44 40 39 39 39 40 38 39 42 45 48 49 48 46 48 48 40 34 78 91 70 68 55 51 55 66 109 132 169 188 200 209 212 224 233
81 73 71 66 61 53 50 47 48 47 45 45 43 42 43 42 38 38 41 43 39 38 40 43 44 47 48 53 51 46 41 49 69 69 66 57 49 47 44 62 78 102 144 176 195 202 205 208 212
85 76 68 64 56 50 53 51 48 48 45 46 45 44 44 43 40 39 42 41 42 40 41 43 47 48 46 50 53 53 52 54 62 57 50 47 43 43 44 47 54 66 115 180 196 196 216 218 226
87 78 64 54 51 51 53 50 46 47 45 47 47 45 45 45 43 39 41 42 42 42 43 49 52 54 52 50 53 52 48 52 61 59 51 40 39 40 47 46 46 44 59 129 150 179 216 239 243
86 79 61 53 50 49 47 47 46 47 45 46 45 44 43 43 43 41 39 41 41 42 44 48 50 50 49 46 46 45 50 50 49 47 41 38 35 33 40 46 44 37 23 38 76 92 265 253 230
77 72 61 53 51 49 46 43 44 46 46 44 44 44 43 42 43 43 41 39 40 43 46 47 49 45 42 41 42 47 49 47 44 40 37 34 29 34 40 40 35 32 32 47 62 354 277 258 245
71 68 62 56 52 52 49 45 46 45 43 43 44 43 41 41 41 43 42 39 39 43 45 46 48 46 42 40 40 44 48 46 43 37 32 30 24 26 29 24 20 16 22 22 356 309 283 268 259
73 68 64 57 52 51 49 47 48 45 42 42 42 41 40 40 40 40 41 40 40 41 43 45 44 42 40 37 37 41 44 42 38 28 22 27 25 20 14 12 5 8 343 316 305 294 285 273 263
64 65 63 56 49 45 44 43 44 45 42 41 41 41 39 37 38 39 40 40 39 39 41 42 43 40 39 37 34 35 33 28 24 17 10 14 18 11 8 2 354 344 327 314 294 281 275 271 269
66 60 61 54 48 43 42 41 42 43 39 39 38 37 34 34 35 36 36 37 38 39 40 40 39 37 37 37 33 30 27 22 16 13 13 9 9 8 7 358 353 340 324 314 307 294 279 273 271
68 63 63 57 55 48 46 43 38 38 36 36 35 34 32 33 33 32 30 31 32 35 38 35 30 29 32 36 33 23 19 18 15 16 15 11 11 13 11 7 0 353 339 330 317 299 288 292 294
71 68 69 62 59 51 42 42 37 34 36 34 31 30 29 30 30 28 25 26 27 28 29 30 30 28 25 26 24 21 15 12 11 11 10 12 20 18 12 9 1 356 345 339 336 331 320 315 306
70 70 68 55 50 42 37 37 34 34 33 33 28 27 28 26 25 25 24 23 22 23 23 22 20 21 22 22 20 17 15 9 5 10 11 17 20 9 8 7 4 359 350 346 344 344 331 317 314
69 70 62 48 42 30 28 33 32 25 25 26 23 21 24 23 22 23 24 23 18 17 18 16 18 16 15 15 13 9 6 7 7 13 11 13 12 3 4 3 3 355 344 339 337 333 329 324 313
65 67 66 48 35 21 18 19 23 19 16 20 21 20 21 19 19 20 22 21 15 11 11 14 16 15 15 13 8 4 3 2 7 9 9 12 9 3 357 357 358 348 342 340 337 325 325 323 316
62 55 65 46 29 9 5 5 10 10 12 17 17 19 21 18 15 15 17 18 15 12 9 8 11 10 9 9 8 7 1 353 357 2 6 5 5 5 1 356 349 338 331 328 326 323 319 317 316
67 51 38 31 11 5 2 356 6 3 2 11 18 16 15 14 12 10 11 17 15 13 10 6 4 3 4 6 8 5 360 356 351 351 351 353 352 354 356 350 340 333 330 321 316 317 316 317 318
114 51 329 328 329 342 347 351 353 355 1 7 13 10 9 7 6 7 7 10 10 8 7 5 4 3 3 3 360 359 355 350 345 341 339 338 336 338 340 343 339 329 325 322 316 317 319 319 318
254 298 311 313 307 315 334 340 344 343 357 3 5 7 7 3 3 4 4 5 3 1 1 4 2 1 360 356 352 349 345 341 339 336 331 328 324 323 328 328 328 324 321 318 316 316 319 317 318
255 271 267 271 293 301 323 329 332 339 347 351 353 356 358 360 358 357 359 360 357 357 358 358 359 356 354 351 346 345 341 335 330 327 324 320 317 317 326 326 324 318 314 313 313 312 312 312 310
252 260 273 268 279 298 310 314 324 328 331 341 350 350 351 352 351 352 352 352 353 353 352 352 351 350 349 346 342 340 332 325 320 320 320 321 318 316 320 320 321 316 309 307 304 306 305 304 304
251 258 270 268 276 294 307 308 313 318 324 333 338 337 342 342 343 347 347 346 348 347 345 345 344 344 343 341 337 334 327 323 322 320 318 318 315 314 313 312 314 313 309 305 302 300 300 299 298
262 273 269 259 274 290 293 294 297 306 325 326 322 325 333 334 334 336 339 338 340 340 340 337 336 335 335 334 332 330 327 321 318 317 316 316 315 314 311 309 308 307 305 303 301 299 297 297 296
266 274 272 275 286 290 291 292 294 304 315 313 313 317 320 324 327 330 331 331 333 334 333 330 328 328 329 327 326 327 325 318 314 314 315 315 313 312 310 305 304 304 302 302 301 299 296 295 294
260 266 270 274 281 285 290 291 285 289 292 299 305 313 316 319 326 325 323 326 328 328 327 325 322 322 323 323 325 325 322 315 313 311 311 311 309 308 310 310 307 303 301 301 302 301 298 296 294
257 263 270 271 279 283 284 290 291 291 297 297 298 308 315 317 319 319 321 323 324 323 323 321 318 317 317 318 320 322 320 313 310 310 311 311 309 307 307 308 308 306 302 300 300 300 298 297 294
250 267 274 276 278 281 281 286 288 292 298 299 295 300 308 311 313 316 318 318 319 320 320 319 318 318 318 318 318 317 315 313 309 307 310 310 307 305 305 306 306 305 302 299 297 297 299 298 296
250 260 264 267 273 277 282 286 286 289 291 291 294 295 298 305 309 311 313 314 315 317 317 316 316 316 315 314 314 313 311 311 308 305 304 305 305 306 307 307 307 306 305 303 301 301 300 299 298
Height
5903 5902 5902 5902 5902 5901 5899 5898 5898 5897 5897 5895 5894 5893 5892 5891 5891 5891 5888 5885 5884 5883 5882 5881 5880 5879 5879 5878 5878 5877 5877 5876 5876 5876 5876 5875 5875 5874 5872 5871 5869 5869 5870 5871 5873 5875 5876 5876 5877
5904 5904 5904 5904 5902 5901 5901 5900 5899 5899 5898 5896 5895 5894 5893 5891 5890 5889 5888 5886 5885 5884 5883 5882 5881 5880 5879 5879 5878 5878 5877 5875 5874 5875 5876 5875 5875 5874 5872 5871 5870 5869 5870 5871 5873 5874 5875 5875 5876
5906 5906 5906 5905 5903 5903 5902 5902 5901 5899 5899 5898 5896 5895 5894 5892 5891 5890 5888 5887 5886 5885 5884 5883 5882 5881 5880 5879 5878 5878 5876 5873 5870 5874 5876 5876 5876 5875 5873 5872 5871 5870 5871 5872 5873 5874 5875 5875 5875
5908 5908 5908 5906 5905 5905 5904 5903 5902 5901 5900 5899 5898 5897 5895 5893 5892 5890 5889 5888 5886 5885 5884 5883 5882 5881 5881 5880 5879 5878 5877 5875 5874 5875 5876 5876 5876 5875 5874 5873 5873 5872 5872 5873 5874 5875 5875 5875 5875
5910 5910 5908 5907 5907 5906 5905 5905 5904 5903 5902 5901 5899 5898 5896 5894 5892 5891 5890 5888 5887 5886 5885 5884 5883 5882 5881 5881 5880 5879 5878 5877 5877 5877 5877 5877 5876 5876 5875 5875 5874 5874 5874 5874 5874 5875 5875 5875 5875
5911 5910 5909 5908 5908 5908 5907 5906 5906 5905 5904 5902 5900 5899 5897 5896 5894 5892 5891 5889 5888 5887 5886 5885 5884 5883 5882 5882 5881 5880 5879 5879 5878 5878 5878 5877 5877 5877 5876 5876 5875 5875 5875 5874 5874 5875 5875 5875 5874
5912 5911 5910 5910 5909 5909 5909 5908 5907 5906 5905 5903 5902 5900 5898 5897 5895 5893 5892 5891 5889 5888 5887 5886 5885 5884 5883 5883 5882 5881 5880 5880 5879 5879 5878 5878 5877 5877 5877 5876 5876 5875 5875 5875 5874 5875 5875 5874 5874
5913 5913 5912 5911 5911 5911 5911 5910 5909 5907 5906 5904 5903 5901 5900 5898 5897 5895 5893 5892 5891 5890 5889 5887 5886 5885 5884 5883 5883 5882 5881 5880 5880 5879 5878 5878 5878 5877 5877 5876 5876 5875 5875 5875 5874 5874 5874 5874 5874
5914 5915 5914 5913 5912 5912 5912 5911 5911 5909 5907 5906 5904 5903 5901 5900 5898 5897 5895 5894 5892 5891 5890 5889 5888 5886 5885 5884 5883 5883 5882 5881 5881 5880 5879 5878 5878 5877 5877 5876 5876 5875 5875 5874 5874 5874 5873 5873 5873
5916 5915 5915 5915 5914 5913 5913 5912 5911 5910 5909 5907 5905 5904 5902 5901 5899 5898 5897 5895 5894 5892 5891 5890 5888 5887 5886 5885 5884 5883 5882 5882 5881 5880 5880 5878 5878 5877 5877 5876 5876 5875 5875 5874 5874 5873 5873 5872 5872
5917 5917 5916 5916 5916 5915 5914 5913 5912 5912 5911 5909 5907 5905 5904 5902 5900 5899 5898 5896 5895 5893 5892 5890 5889 5888 5886 5885 5884 5884 5883 5882 5882 5881 5880 5879 5878 5877 5877 5876 5876 5875 5875 5874 5873 5873 5872 5872 5871
5919 5919 5919 5918 5917 5917 5915 5915 5914 5914 5913 5911 5909 5907 5905 5903 5902 5900 5899 5897 5896 5894 5893 5892 5890 5889 5887 5886 5885 5884 5883 5883 5882 5881 5880 5879 5878 5878 5877 5876 5875 5875 5874 5874 5873 5872 5871 5871 5870
5921 5921 5920 5920 5920 5918 5918 5917 5916 5915 5913 5911 5910 5908 5906 5905 5903 5901 5900 5898 5896 5895 5894 5892 5891 5889 5888 5886 5885 5884 5884 5883 5882 5881 5880 5879 5879 5878 5877 5876 5875 5874 5874 5873 5872 5871 5871 5870 5870
5923 5922 5922 5921 5921 5919 5919 5918 5917 5916 5914 5912 5911 5909 5908 5906 5904 5902 5900 5899 5897 5895 5893 5892 5891 5890 5888 5887 5885 5884 5883 5883 5882 5881 5880 5879 5878 5878 5877 5876 5875 5874 5873 5872 5872 5871 5870 5869 5869
5924 5923 5923 5922 5921 5920 5920 5919 5918 5917 5915 5914 5912 5910 5909 5907 5905 5903 5901 5899 5897 5895 5893 5892 5891 5889 5888 5887 5885 5884 5883 5882 5881 5881 5880 5879 5878 5878 5877 5876 5875 5874 5873 5872 5871 5870 5869 5869 5867
5924 5924 5924 5923 5922 5921 5921 5920 5919 5917 5916 5914 5913 5911 5910 5908 5906 5904 5902 5900 5898 5896 5894 5892 5891 5889 5888 5887 5885 5884 5883 5882 5881 5880 5880 5879 5878 5877 5876 5875 5874 5873 5872 5871 5870 5869 5869 5868 5867
5924 5924 5924 5923 5922 5921 5921 5920 5919 5918 5916 5915 5913 5912 5910 5908 5906 5905 5903 5901 5899 5897 5895 5893 5891 5890 5888 5887 5885 5884 5883 5882 5881 5880 5879 5878 5877 5876 5875 5874 5873 5872 5871 5870 5869 5868 5868 5867 5865
5925 5924 5923 5923 5922 5921 5921 5920 5918 5918 5917 5915 5913 5912 5910 5909 5907 5905 5903 5901 5899 5897 5896 5894 5892 5890 5888 5886 5885 5883 5882 5882 5881 5879 5878 5878 5877 5875 5874 5873 5872 5871 5870 5869 5868 5867 5866 5865 5864
5924 5924 5923 5923 5922 5921 5920 5920 5919 5917 5916 5915 5914 5912 5910 5909 5907 5905 5903 5901 5899 5897 5895 5894 5892 5890 5888 5886 5884 5883 5882 5881 5880 5879 5878 5877 5875 5874 5873 5872 5871 5870 5869 5868 5867 5866 5864 5863 5862
5923 5923 5923 5923 5922 5921 5920 5919 5918 5917 5916 5915 5914 5912 5910 5909 5907 5905 5903 5901 5899 5897 5895 5893 5891 5889 5887 5885 5884 5883 5881 5880 5879 5878 5877 5876 5874 5873 5872 5870 5869 5868 5867 5866 5865 5864 5863 5862 5860
5923 5923 5922 5922 5921 5920 5919 5919 5917 5916 5915 5914 5913 5912 5910 5909 5907 5905 5903 5900 5899 5897 5895 5893 5891 5888 5886 5885 5883 5882 5881 5879 5878 5877 5876 5874 5872 5871 5870 5869 5867 5866 5865 5864 5863 5862 5861 5859 5858
5922 5922 5922 5921 5920 5919 5919 5918 5916 5914 5914 5914 5912 5911 5910 5908 5906 5904 5902 5900 5898 5896 5894 5892 5890 5888 5885 5883 5882 5881 5879 5878 5876 5875 5874 5872 5871 5870 5868 5867 5866 5864 5863 5862 5861 5860 5858 5857 5856
5920 5920 5920 5920 5919 5919 5918 5917 5916 5914 5912 5912 5911 5910 5908 5907 5905 5903 5902 5900 5898 5895 5893 5891 5889 5887 5885 5883 5881 5880 5878 5876 5875 5873 5872 5870 5869 5867 5866 5865 5863 5862 5861 5860 5858 5857 5856 5854 5853
5919 5919 5919 5918 5917 5918 5917 5916 5915 5912 5911 5910 5909 5908 5907 5906 5904 5902 5900 5898 5896 5894 5892 5890 5887 5885 5883 5881 5879 5878 5876 5874 5873 5871 5869 5868 5867 5865 5863 5862 5861 5859 5858 5857 5855 5854 5852 5851 5850
5917 5917 5917 5916 5915 5915 5914 5913 5913 5911 5909 5908 5907 5907 5906 5904 5902 5900 5898 5896 5895 5892 5890 5888 5886 5884 5881 5879 5877 5875 5873 5871 5870 5869 5867 5865 5864 5862 5860 5859 5858 5857 5855 5854 5852 5850 5849 5847 5846
5914 5915 5915 5914 5913 5912 5911 5910 5910 5909 5907 5906 5906 5905 5903 5902 5900 5898 5896 5894 5892 5890 5888 5886 5884 5881 5879 5877 5875 5873 5871 5869 5868 5866 5865 5863 5861 5860 5858 5856 5855 5853 5851 5850 5848 5846 5845 5843 5842
5912 5912 5912 5911 5910 5910 5909 5907 5907 5906 5905 5904 5904 5902 5901 5899 5897 5896 5894 5892 5890 5888 5886 5884 5882 5879 5877 5875 5873 5870 5868 5867 5865 5863 5862 5860 5858 5856 5854 5852 5850 5849 5847 5845 5844 5842 5840 5838 5836
5910 5910 5910 5908 5908 5907 5906 5905 5905 5904 5903 5902 5901 5900 5898 5896 5895 5893 5891 5889 5887 5885 5883 5880 5878 5877 5875 5872 5870 5868 5866 5864 5862 5860 5858 5857 5855 5853 5850 5848 5846 5844 5842 5840 5839 5837 5835 5833 5831
5907 5907 5906 5905 5905 5904 5903 5905 5902 5901 5900 5898 5897 5896 5895 5893 5891 5890 5887 5886 5884 5881 5879 5877 5874 5873 5871 5869 5867 5865 5863 5860 5858 5856 5854 5853 5850 5848 5846 5844 5841 5839 5837 5835 5833 5831 5829 5827 5825
5903 5902 5902 5902 5902 5901 5900 5902 5898 5897 5896 5895 5894 5893 5891 5890 5888 5886 5884 5883 5880 5878 5876 5873 5871 5869 5867 5865 5863 5861 5859 5856 5854 5852 5850 5848 5845 5843 5841 5839 5836 5834 5831 5829 5827 5824 5822 5820 5818